Location: Arezzo
(43.4170°N, 11.8830°E)
Time: 07:43:08
(UTC+02:00)

STARLINK-2646 - Pass Details

Date: 24 June 2021
Orbit: 546 x 548 km, 53.1° (Epoch: 24 July)

Event Time Altitude Azimuth Distance (km) Brightness Sun altitude
Exits shadow 02:35:27 - 120° (ESE) 2,060 6.4 -20.7°
Enters shadow 03:35:32 -68° 234° (SW) 12,439 10.4 -15.8°
Maximum altitude 04:13:55 50° 138° (SE) 699 4.1 -11.6°
